Corpus Christi, TX

6:29 AM CDT on August 18, 2017 (GMT -0500)
Corpus Christi International

Weather History for KCRP - April, 2014

Change the Weather History Date:

Sunday, April 6, 2014

  Actual Average Record
Temperature  
Mean Temperature 66 °F 70 °F  
Max Temperature 75 °F 80 °F 95 °F (1909)
Min Temperature 57 °F 61 °F 43 °F (1996)
Degree Days  
Heating Degree Days 0 1  
Month to date heating degree days 0 6  
Since 1 July heating degree days 1131 887  
Cooling Degree Days 1 6  
Month to date cooling degree days 50 36  
Year to date cooling degree days 211 227  
Growing Degree Days 17 (Base 50)    
Moisture  
Dew Point 66 °F    
Average Humidity 86    
Maximum Humidity 93    
Minimum Humidity 78    
Precipitation  
Precipitation 0.06 in 0.05 in 4.00 in (1894)
Month to date precipitation 0.26 0.32  
Year to date precipitation 2.82 5.68  
Snow  
Snow 0.00 in - - ()
Month to date snowfall 0.0  
Since 1 July snowfall T  
Snow Depth 0.00 in    
Sea Level Pressure  
Sea Level Pressure 29.71 in    
Wind  
Wind Speed 11 mph (North)    
Max Wind Speed 24 mph    
Max Gust Speed 28 mph    
Visibility 4 miles    
Events Fog , Rain    
T = Trace of Precipitation, MM = Missing Value Source: NWS Daily Summary

Daily Weather History Graph

Daily Weather History Graph

Search for Another Location

Airport or City:

Trip Planner

Search our weather history database for the weather conditions in past years. The results will help you decide how hot, cold, wet, or windy it might be!

Date:

Astronomy

Apr. 06, 2014 Rise Set
Actual Time 7:14 AM CDT 7:50 PM CDT
Civil Twilight 6:51 AM CDT 8:14 PM CDT
Nautical Twilight 6:23 AM CDT 8:41 PM CDT
Astronomical Twilight 5:55 AM CDT 9:10 PM CDT
Moon 12:32 PM CDT (4/6) 1:30 AM CDT (4/6)
Length of Visible Light 13h 22m
Length of Day
12h 35m
Waxing Crescent, 44% of the Moon is Illuminated
Apr 6
Waxing Crescent
Apr 7
First Quarter
Apr 15
Full
Apr 22
Last Quarter
Apr 29
New

Hourly Weather History & Observations

Time (CDT) Temp. Dew Point Humidity Pressure Visibility Wind Dir Wind Speed Gust Speed Precip Events Conditions
12:35 AM 66.9 °F 64.9 °F 93% 29.80 in 2.0 mi ENE 16.1 mph - 0.01 in   Light Drizzle
12:51 AM 66.9 °F 64.9 °F 93% 29.80 in 2.0 mi ENE 12.7 mph - 0.02 in Rain Light Rain
1:51 AM 68.0 °F 66.0 °F 93% 29.77 in 2.5 mi ENE 12.7 mph - 0.01 in   Light Drizzle
2:46 AM 68.0 °F 66.2 °F 94% 29.75 in 1.5 mi ENE 8.1 mph - 0.01 in Rain Light Rain
2:51 AM 69.1 °F 66.9 °F 93% 29.75 in 0.8 mi East 10.4 mph - 0.01 in   Light Drizzle
3:51 AM 69.1 °F 68.0 °F 96% 29.73 in 0.5 mi East 9.2 mph - 0.00 in Fog Fog
4:51 AM 70.0 °F 68.0 °F 93% 29.71 in 0.5 mi East 8.1 mph - 0.02 in Fog , Rain Light Rain
5:51 AM 70.0 °F 68.0 °F 93% 29.70 in 0.5 mi East 8.1 mph - 0.00 in Fog Fog
6:51 AM 70.0 °F 69.1 °F 97% 29.71 in 0.5 mi SE 5.8 mph - 0.02 in Fog , Rain Light Rain
7:09 AM 70.0 °F 69.1 °F 97% 29.71 in 0.2 mi SE 4.6 mph - 0.00 in Fog Light Drizzle
7:51 AM 70.0 °F 69.1 °F 97% 29.71 in 0.2 mi SSE 4.6 mph - 0.00 in Fog Fog
8:51 AM 71.1 °F 69.1 °F 93% 29.72 in 0.2 mi South 6.9 mph - 0.00 in Fog Light Drizzle
9:25 AM 71.1 °F 70.0 °F 96% 29.72 in 0.5 mi SSE 5.8 mph - 0.00 in   Overcast
9:31 AM 71.1 °F 70.0 °F 96% 29.71 in 1.0 mi SSE 6.9 mph - 0.00 in   Overcast
9:51 AM 72.0 °F 70.0 °F 93% 29.71 in 1.0 mi South 6.9 mph - 0.00 in   Overcast
10:17 AM 73.0 °F 71.1 °F 93% 29.72 in 1.0 mi South 9.2 mph - N/A   Overcast
10:34 AM 73.0 °F 71.1 °F 93% 29.72 in 3.0 mi South 8.1 mph - 0.00 in   Overcast
10:46 AM 73.4 °F 71.6 °F 94% 29.72 in 2.0 mi SSW 9.2 mph - 0.00 in   Overcast
10:51 AM 73.9 °F 71.1 °F 91% 29.72 in 2.0 mi SSW 8.1 mph - 0.00 in   Overcast
11:33 AM 75.0 °F 71.1 °F 87% 29.71 in 4.0 mi SSW 10.4 mph - N/A   Overcast
11:51 AM 75.0 °F 71.1 °F 87% 29.70 in 4.0 mi SSW 9.2 mph - N/A   Overcast
12:51 PM 73.9 °F 70.0 °F 87% 29.70 in 6.0 mi WSW 10.4 mph - 0.00 in   Overcast
1:04 PM 73.9 °F 70.0 °F 87% 29.70 in 6.0 mi West 9.2 mph - N/A   Overcast
1:25 PM 73.0 °F 70.0 °F 90% 29.69 in 6.0 mi West 8.1 mph - 0.00 in   Light Drizzle
1:40 PM 73.9 °F 70.0 °F 87% 29.68 in 6.0 mi West 8.1 mph - 0.00 in   Light Drizzle
1:51 PM 73.9 °F 70.0 °F 87% 29.67 in 5.0 mi West 8.1 mph - 0.00 in   Light Drizzle
2:04 PM 73.9 °F 70.0 °F 87% 29.67 in 6.0 mi West 8.1 mph - 0.00 in Rain Light Rain
2:51 PM 73.4 °F 69.8 °F 88% 29.66 in 7.0 mi NNW 17.3 mph 21.9 mph N/A   Overcast
3:04 PM 69.1 °F 66.0 °F 90% 29.66 in 6.0 mi NNW 17.3 mph - 0.00 in Rain Light Rain
3:19 PM 66.9 °F 64.9 °F 93% 29.65 in 4.0 mi NNW 15.0 mph - 0.00 in   Overcast
3:51 PM 68.0 °F 64.0 °F 87% 29.64 in 6.0 mi NNW 10.4 mph - 0.00 in   Overcast
4:17 PM 69.1 °F 64.9 °F 87% 29.65 in 8.0 mi NNW 12.7 mph - N/A   Overcast
4:51 PM 70.0 °F 64.9 °F 84% 29.64 in 10.0 mi NNW 13.8 mph - N/A   Overcast
5:20 PM 71.1 °F 64.0 °F 78% 29.65 in 10.0 mi NNW 19.6 mph - N/A   Overcast
5:51 PM 69.1 °F 63.0 °F 81% 29.66 in 10.0 mi NNW 17.3 mph - N/A   Overcast
6:51 PM 64.0 °F 59.0 °F 84% 29.70 in 10.0 mi North 19.6 mph 27.6 mph N/A   Overcast
7:51 PM 62.1 °F 55.9 °F 80% 29.72 in 10.0 mi North 15.0 mph - N/A   Mostly Cloudy
8:51 PM 60.1 °F 55.0 °F 83% 29.73 in 10.0 mi North 11.5 mph - N/A   Mostly Cloudy
9:51 PM 59.0 °F 54.0 °F 83% 29.77 in 10.0 mi North 10.4 mph - N/A   Mostly Cloudy
10:51 PM 59.0 °F 53.1 °F 81% 29.80 in 10.0 mi North 10.4 mph - N/A   Mostly Cloudy
11:51 PM 57.9 °F 52.0 °F 81% 29.81 in 10.0 mi North 15.0 mph - N/A   Mostly Cloudy